RH
14 13 13 12 11 10 10 8 6 6 5 5 5 5 5 4 4 3 3 3 4 5 5 6 6 6 6 6 6 5 5 4 4 4 3 4 5 5 6 6 6 6 6 7 10 14 18 21 24 27 28 31 34 34 32 32 32 31 33 34 30 28 25 23 23 26 31 32 34 36 37 42 45 43 42 40 39 39 38 37 35 33 34 37 38 42 44 41
14 14 13 12 11 10 10 8 7 7 6 6 5 5 4 4 4 4 3 3 4 5 5 5 6 6 6 6 6 5 5 4 4 4 4 4 4 5 5 6 6 6 5 8 11 15 19 21 22 21 21 25 29 28 27 28 29 28 31 31 27 27 21 18 21 24 30 33 35 37 38 40 40 39 39 40 38 35 38 37 35 39 42 42 43 43 42 41
15 14 14 13 12 11 10 9 9 8 7 6 5 4 4 4 4 4 4 4 4 5 5 5 5 6 6 6 6 6 5 4 4 4 3 3 4 4 5 5 5 5 6 9 12 16 19 19 18 17 18 22 25 25 24 24 26 26 28 28 26 26 21 19 22 24 30 33 35 37 36 35 34 34 35 36 33 30 36 38 37 43 45 45 47 44 41 41
14 14 13 13 12 11 11 11 10 9 7 6 5 4 4 5 5 4 4 4 4 4 5 5 5 6 6 6 6 5 5 4 4 3 4 4 4 4 5 5 5 5 6 9 13 16 18 17 16 15 16 20 22 22 23 23 24 25 26 26 25 25 22 20 22 25 29 31 31 33 34 34 32 31 31 30 30 29 32 34 35 41 43 45 48 44 41 40
14 14 14 14 13 12 12 12 11 10 9 7 5 4 6 6 5 5 4 4 5 5 5 5 4 5 5 5 5 5 4 4 4 4 4 4 4 4 4 5 4 5 7 10 13 16 17 16 15 14 15 20 20 19 20 20 20 24 25 24 22 22 21 21 23 25 27 28 28 31 33 33 31 30 30 28 28 29 29 29 30 35 39 42 45 46 43 41
14 15 16 15 14 13 13 13 12 11 10 8 6 6 7 6 5 4 4 4 5 5 5 4 4 4 4 4 5 4 4 5 5 6 5 3 4 4 4 4 4 5 8 10 13 15 15 14 13 14 16 19 20 16 16 16 17 20 22 21 19 18 20 21 23 26 29 29 29 32 33 32 32 32 33 30 29 28 27 28 30 32 36 38 41 45 46 43
15 16 16 16 15 15 14 13 13 12 11 9 8 8 8 6 5 4 4 5 4 5 5 5 5 4 5 4 4 4 4 6 6 7 6 4 4 4 4 5 4 5 8 11 13 14 13 13 12 14 15 17 18 15 14 14 13 16 18 16 16 17 20 22 26 30 32 33 33 34 34 33 35 35 34 33 33 32 30 31 32 34 36 37 39 42 45 44
16 16 17 17 16 15 14 13 13 12 11 9 8 8 8 7 5 4 4 4 4 5 4 4 4 4 4 4 4 5 4 6 7 6 6 5 4 3 4 4 5 6 8 11 12 13 13 13 12 13 14 16 16 14 13 13 12 14 15 15 16 20 23 25 31 34 34 34 35 35 35 36 37 35 33 32 33 33 32 33 35 37 38 38 38 40 41 41
17 17 17 17 17 16 14 13 12 12 11 9 8 8 8 7 5 4 4 4 4 4 4 3 3 3 3 3 4 5 4 5 6 5 5 5 4 4 4 5 5 6 8 11 12 12 13 13 12 12 14 15 15 14 13 14 14 12 13 16 18 22 26 29 34 36 35 35 36 37 39 40 37 32 30 29 29 30 31 33 35 37 39 39 38 39 40 39
19 18 17 17 17 15 14 13 13 12 10 9 8 8 8 7 5 4 4 4 3 3 3 2 2 3 2 3 4 4 4 5 5 6 6 5 5 4 4 5 6 6 8 10 11 12 14 13 12 12 13 14 15 15 14 14 14 12 13 19 22 25 28 31 35 36 35 36 38 39 42 42 35 29 30 27 27 28 30 32 33 35 38 39 39 40 40 39
19 18 17 17 16 15 14 13 12 12 10 9 8 8 8 6 5 4 4 5 3 3 3 2 2 2 3 4 5 5 6 6 6 7 6 5 5 5 5 6 6 7 8 10 11 12 13 13 13 12 12 13 13 14 13 14 13 13 16 21 25 29 30 33 36 35 34 38 40 41 42 41 35 33 33 29 29 30 32 34 33 34 37 37 38 38 38 37
20 18 17 17 16 15 14 12 13 12 10 9 8 8 8 5 5 5 5 5 5 4 4 3 3 3 4 4 5 6 7 7 7 6 5 5 5 5 6 7 7 7 8 10 11 11 11 12 12 12 12 12 13 13 13 14 13 16 19 23 29 34 34 36 37 34 35 38 39 39 41 42 40 37 35 31 30 30 32 34 33 33 36 36 36 36 36 35
21 19 17 16 15 14 13 13 13 12 11 10 8 9 7 4 5 6 6 6 6 5 5 6 6 6 6 6 6 6 6 7 7 6 5 5 5 5 6 7 7 8 9 11 12 11 11 11 11 11 11 12 13 12 13 12 13 17 20 23 30 36 37 36 36 34 36 38 37 38 44 47 43 38 34 32 32 31 31 31 30 31 32 33 34 34 34 33
21 19 17 15 15 14 14 13 13 12 12 10 9 9 8 6 6 7 7 7 8 8 7 7 8 8 9 8 7 7 7 7 7 6 5 5 5 5 5 7 8 9 10 10 11 11 11 11 11 11 11 12 12 12 14 14 14 16 20 22 27 35 38 34 33 36 38 39 37 39 47 48 43 40 36 34 34 32 33 30 28 29 29 30 30 30 30 30
21 19 17 15 15 14 14 13 12 12 12 12 9 9 10 9 8 7 7 7 8 9 9 10 10 10 10 8 7 8 7 7 7 6 5 5 5 5 6 8 9 9 9 10 11 11 11 11 10 11 12 12 13 14 16 16 17 18 21 23 24 31 35 30 31 36 39 40 38 41 48 48 43 41 39 37 36 34 35 31 27 26 26 26 27 27 28 29
21 19 17 16 15 14 14 14 13 13 13 13 11 8 9 11 10 8 8 8 7 9 10 12 11 10 9 8 7 7 7 6 7 6 5 5 5 6 6 7 8 8 7 8 9 9 10 10 10 12 13 14 16 18 19 19 22 21 23 26 23 28 31 29 31 34 37 40 40 42 48 48 44 42 41 40 38 36 37 34 28 26 25 24 25 27 27 28
20 19 18 16 16 15 15 14 13 12 13 13 12 9 9 11 12 11 10 9 9 9 11 11 11 10 8 7 7 7 7 6 6 6 5 5 6 7 7 7 7 7 7 8 8 8 9 10 12 14 16 18 19 21 21 22 24 22 24 26 24 26 29 31 34 34 36 41 43 45 47 48 45 44 44 42 40 38 40 37 30 28 26 25 25 26 27 27
19 18 18 17 17 16 15 14 13 12 13 13 11 10 10 10 11 12 11 10 10 10 11 11 12 11 8 7 7 7 7 7 6 6 6 6 7 7 7 7 7 8 8 9 9 9 10 11 14 17 19 20 21 22 23 22 22 23 25 27 24 25 28 31 35 35 36 41 43 45 48 49 46 45 46 44 40 40 42 39 33 31 29 28 27 27 27 26
18 17 17 18 18 16 15 15 13 12 13 13 11 11 10 9 10 11 11 12 11 10 12 12 11 11 9 7 7 7 7 7 6 6 6 6 7 7 7 7 8 9 10 11 11 11 12 14 15 18 19 20 19 21 21 20 20 22 24 25 24 26 28 29 32 33 35 40 41 42 47 51 47 45 45 44 41 40 43 42 37 35 32 31 30 29 28 27
17 16 16 18 19 17 16 15 14 13 12 12 11 11 11 10 11 12 11 11 11 11 12 11 10 10 9 7 8 7 7 7 6 6 6 6 7 8 7 8 10 12 13 13 13 13 14 16 17 19 20 20 19 18 18 18 19 19 21 23 23 24 27 28 32 34 34 38 42 42 46 49 46 45 45 44 42 41 44 44 41 39 35 34 32 31 30 30
17 16 16 18 19 18 17 16 15 14 12 12 11 11 11 12 13 13 11 10 10 11 11 10 9 9 8 8 8 8 8 8 8 7 7 7 8 8 8 10 12 14 15 14 14 15 15 17 19 20 20 18 18 18 17 18 18 18 20 21 21 23 26 28 31 33 32 38 44 44 46 48 45 45 45 46 46 45 46 46 44 41 37 35 34 33 33 33
16 16 16 17 19 19 18 17 16 16 14 12 12 12 12 13 13 14 13 12 11 10 10 10 9 9 8 8 9 8 9 10 9 8 8 8 9 10 11 13 14 15 15 14 15 16 17 19 19 19 18 18 18 20 19 20 19 19 20 20 22 24 26 28 30 32 33 40 46 45 45 46 44 44 44 46 49 48 47 47 45 42 39 37 35 36 36 36
16 16 16 17 19 19 18 17 17 17 15 13 13 12 12 12 13 15 14 14 12 9 9 10 8 8 8 8 8 8 9 9 9 8 8 10 11 12 13 14 15 15 15 14 15 15 16 18 18 17 18 18 18 19 20 20 19 20 20 21 23 23 26 29 30 34 35 39 44 44 44 45 43 43 42 43 47 48 47 45 44 42 40 39 37 37 37 37
15 15 16 17 19 19 19 18 17 17 16 15 14 13 13 13 14 15 15 14 13 10 9 10 9 8 8 8 8 9 9 9 8 9 9 11 12 12 13 14 15 14 14 14 15 15 15 16 16 17 19 18 17 18 19 20 19 20 21 21 22 23 26 28 31 36 38 39 40 41 45 47 43 43 43 43 46 48 48 46 44 42 41 40 39 39 39 39
15 15 15 17 19 19 18 18 18 17 16 16 15 14 14 13 14 15 14 14 12 11 10 9 9 9 8 9 9 9 9 8 8 10 11 12 12 12 13 13 13 14 14 15 14 14 14 14 15 16 18 17 17 17 18 20 20 20 20 21 23 24 27 29 32 36 42 43 39 38 44 48 44 42 42 45 47 50 49 48 47 44 42 42 42 43 42 41
14 14 15 16 18 19 18 17 18 17 16 16 16 15 14 14 14 15 16 15 12 10 10 9 10 9 8 9 9 9 9 9 9 10 11 12 12 12 12 13 13 13 14 14 15 15 14 14 15 16 17 17 17 17 18 19 21 21 21 22 25 26 28 29 30 34 42 42 37 36 40 44 43 38 38 44 49 52 51 49 49 46 44 44 44 44 44 42
14 14 14 16 18 19 18 17 17 17 16 17 17 16 15 15 15 15 17 17 13 10 10 9 9 9 9 9 9 9 9 10 9 10 11 12 11 11 12 13 13 13 14 15 15 15 15 15 17 18 18 17 17 18 19 20 20 20 20 23 26 27 26 27 27 31 36 35 35 37 38 40 40 36 37 44 49 52 52 50 50 48 46 46 45 46 45 43
14 13 14 15 17 18 17 16 18 17 17 18 16 16 17 17 16 16 18 20 15 10 9 9 9 9 9 9 9 9 10 10 10 11 11 11 12 11 12 13 13 13 13 13 14 15 15 16 17 19 18 17 17 19 20 20 19 19 21 22 24 25 25 25 24 28 31 31 36 39 35 35 39 38 40 45 49 51 51 50 52 50 47 48 47 47 47 45
14 13 14 15 16 18 17 16 17 17 18 18 16 16 17 17 16 16 19 20 15 10 9 9 9 9 9 10 10 9 10 10 11 11 11 11 12 11 12 13 13 13 13 12 14 15 16 16 17 18 18 18 18 19 20 20 19 21 22 22 23 24 26 27 25 26 28 29 34 36 32 32 37 39 40 45 46 45 45 48 52 51 49 48 47 47 49 48
15 14 14 15 17 18 17 16 17 17 18 18 17 16 17 18 19 17 18 19 15 11 10 10 10 10 10 10 10 10 10 11 11 12 11 11 11 11 12 12 12 13 14 15 15 16 17 16 17 17 17 17 17 18 19 19 19 21 22 23 23 25 29 31 33 31 29 29 31 31 31 31 35 36 38 41 40 37 39 45 49 50 51 50 48 48 50 51
16 14 15 16 17 17 17 17 16 17 18 19 19 17 17 21 22 19 17 17 16 13 10 10 11 10 10 11 11 11 11 11 11 12 11 11 11 11 12 12 12 14 18 17 14 16 17 16 16 16 15 17 17 17 18 19 20 20 21 21 20 25 28 29 33 30 26 30 30 29 31 32 33 32 34 38 38 38 40 42 45 48 51 51 49 48 50 52
17 15 15 17 17 18 18 17 16 17 19 20 20 19 21 23 20 18 19 18 19 16 13 12 11 11 12 11 11 12 12 12 11 11 12 12 12 12 12 14 15 14 17 18 14 16 17 15 17 16 15 17 17 18 18 19 21 19 20 22 21 25 26 27 34 30 25 29 29 26 29 33 33 28 30 35 36 38 38 39 42 45 48 50 48 48 50 52
18 16 16 17 18 19 18 16 16 17 19 21 20 21 26 26 22 21 22 21 21 20 16 13 12 13 13 13 13 13 12 12 12 12 12 12 12 12 12 14 15 13 15 17 15 15 16 16 17 15 17 18 17 19 20 21 22 18 19 21 20 26 26 29 38 33 26 29 27 25 28 31 31 26 30 36 34 35 36 36 39 42 47 48 46 46 50 52
19 17 17 19 20 19 18 17 16 17 20 21 22 23 25 25 24 24 24 25 25 22 19 16 14 14 14 14 14 14 13 13 13 12 12 12 12 13 13 13 14 14 16 17 16 17 17 18 19 17 19 22 21 22 23 24 23 20 22 21 19 24 24 25 31 27 25 26 25 26 27 28 29 27 31 34 33 34 34 34 38 41 45 47 47 49 50 52
20 17 18 20 20 19 18 16 16 19 21 21 24 27 26 25 25 25 26 27 26 24 23 19 16 14 14 14 15 14 14 15 15 13 12 12 12 13 14 13 14 15 15 15 16 18 17 18 23 22 22 24 25 25 25 24 24 24 24 21 18 23 24 23 27 26 25 24 25 27 27 29 30 28 30 32 32 35 35 35 38 40 45 48 50 51 50 52
21 19 19 20 20 19 17 16 17 20 22 23 25 26 26 25 22 23 25 25 25 26 26 23 19 17 15 14 15 14 14 15 15 13 13 13 13 14 14 13 13 13 13 15 19 19 17 18 23 24 23 25 26 26 26 24 25 26 25 23 23 25 26 26 26 28 27 23 26 29 29 33 30 24 29 32 32 36 36 37 38 40 44 47 48 49 50 51
20 19 19 21 22 20 17 18 20 22 23 23 24 25 26 23 20 24 26 23 24 26 26 25 23 20 18 16 15 16 15 15 14 13 14 14 14 14 14 13 13 12 12 15 18 19 19 21 24 24 24 25 25 25 25 23 24 25 25 27 28 26 27 26 25 28 28 25 29 30 32 35 27 21 28 31 31 34 36 37 38 40 43 44 44 45 46 46
20 19 20 23 24 21 18 20 23 23 23 24 27 30 28 21 20 24 25 22 25 26 25 27 24 21 21 19 18 17 16 16 14 14 14 15 15 15 15 14 13 12 12 13 15 19 21 22 25 26 24 25 26 25 25 24 23 25 26 27 27 26 27 26 25 28 26 26 31 30 31 34 28 26 30 28 30 33 34 36 37 38 40 40 41 41 41 41
18 18 21 24 24 20 19 23 25 23 23 25 30 29 25 22 22 23 24 24 26 25 25 27 24 23 22 21 20 19 17 16 16 15 15 15 16 16 16 16 14 13 13 13 15 19 22 22 25 27 25 24 26 25 25 27 27 27 28 26 27 30 30 26 25 26 24 28 33 31 32 31 28 31 31 26 29 31 32 35 36 38 39 39 40 39 39 40
17 17 20 23 23 20 21 23 25 24 24 28 30 28 23 22 21 20 21 24 26 26 27 27 26 25 24 22 22 19 18 18 16 15 15 15 16 18 18 18 17 16 16 15 17 20 23 22 23 26 26 25 26 27 28 30 29 30 29 28 27 29 28 26 26 26 26 30 35 34 31 26 25 31 30 26 28 30 30 33 34 36 38 38 39 38 38 40
17 17 20 23 22 23 24 24 25 25 27 28 28 27 24 22 21 21 21 24 28 29 29 29 28 28 27 24 22 21 20 19 18 16 16 16 17 18 19 20 20 19 18 17 18 21 22 23 24 26 25 26 27 29 30 30 31 31 29 29 28 27 27 28 29 29 27 28 32 32 26 21 25 31 30 26 28 29 29 32 33 34 36 38 38 37 38 39
18 17 20 22 22 22 25 27 28 27 28 28 24 23 23 22 24 24 21 24 29 31 31 31 30 29 28 25 23 22 21 20 19 18 17 18 19 19 20 21 21 21 21 21 20 22 25 28 28 28 29 29 29 30 31 32 32 31 29 30 30 29 29 29 29 30 27 26 29 30 25 22 26 32 33 30 30 29 30 30 32 33 34 36 38 38 38 40
22 19 18 20 22 22 25 29 29 26 27 26 22 21 20 21 25 26 23 24 30 33 34 33 31 30 28 26 24 23 21 20 20 19 19 20 21 21 22 22 22 22 23 23 23 25 28 30 30 31 34 35 32 32 33 32 32 31 31 32 31 29 28 29 31 30 27 26 27 27 26 24 26 32 35 31 29 29 29 29 30 31 32 34 36 38 40 41
24 21 18 21 24 23 25 29 28 27 29 26 21 20 20 20 23 25 24 25 28 33 35 35 32 30 29 27 25 23 22 20 19 20 21 22 22 22 23 24 23 23 23 23 24 24 25 29 30 31 34 35 34 35 35 34 33 33 33 32 31 32 30 29 31 29 26 27 27 26 26 26 27 31 33 30 28 29 28 27 29 30 31 33 35 38 42 43
26 24 21 22 25 26 28 30 29 28 28 25 23 23 21 20 22 23 25 25 26 30 34 36 34 32 31 30 27 26 24 22 21 22 23 24 24 23 24 25 25 25 25 23 24 26 28 32 35 33 34 36 36 36 37 36 35 34 34 32 31 32 30 29 30 27 26 29 28 25 24 24 26 30 30 31 31 29 29 28 28 30 31 34 37 40 43 42
29 30 27 25 27 29 31 33 33 31 29 27 26 24 21 20 22 23 24 25 26 28 30 34 35 34 32 31 30 29 28 26 26 25 25 25 26 25 25 28 29 29 30 25 24 31 35 36 39 36 32 34 35 36 38 37 33 32 33 32 31 31 30 31 31 28 29 30 28 29 28 22 22 26 29 33 33 31 31 30 30 31 32 34 36 39 42 42
31 33 33 31 30 32 35 36 35 35 33 29 26 24 22 22 24 26 26 26 28 28 29 31 35 35 34 33 32 30 30 31 30 29 28 28 28 27 26 28 29 30 31 28 26 33 35 32 35 36 32 33 36 36 36 34 31 32 33 31 32 32 30 30 29 29 31 29 27 34 35 25 21 25 28 33 34 33 33 32 31 32 32 33 35 37 40 43
33 33 34 33 34 37 39 38 37 37 34 30 29 27 25 26 27 27 28 28 29 29 30 32 33 34 34 33 33 32 31 32 31 30 31 30 31 30 27 27 28 27 28 28 29 35 37 33 34 35 34 36 37 36 36 33 31 34 34 32 33 34 32 31 32 33 30 26 25 32 35 27 23 25 27 30 33 32 31 30 30 31 32 33 35 37 40 41
34 34 34 34 36 38 38 38 38 37 35 33 33 30 28 29 30 29 29 29 29 29 29 30 30 31 33 35 35 35 34 32 30 31 33 32 32 32 29 29 28 27 28 30 32 35 35 35 38 36 33 35 36 36 36 33 32 32 33 34 35 36 34 31 32 33 29 26 26 30 31 28 24 27 29 28 29 29 29 29 29 31 32 34 36 37 39 41
34 36 37 36 37 39 38 38 38 37 36 35 34 32 30 32 33 32 30 28 27 29 29 30 30 29 32 36 37 36 34 33 31 31 32 32 32 34 34 32 31 29 31 34 35 35 33 36 42 39 34 35 37 38 37 36 35 33 34 37 36 34 32 29 29 31 29 29 30 28 29 28 25 27 30 27 26 28 30 31 31 31 33 35 36 37 38 40
33 35 37 39 41 41 41 39 39 39 39 37 35 33 32 34 35 35 34 28 26 28 30 32 31 30 32 34 34 33 33 34 33 31 30 28 28 32 33 34 34 33 35 36 36 37 39 40 42 40 37 37 38 39 40 39 38 35 35 36 34 30 29 28 28 30 28 28 28 27 26 25 25 28 31 30 30 31 32 33 33 33 35 35 35 36 37 39
34 33 34 37 40 41 43 44 42 42 41 37 35 35 34 35 36 37 37 32 28 28 30 31 31 31 30 29 29 30 32 33 32 30 28 25 25 28 30 32 34 34 37 39 39 41 43 42 42 41 39 40 42 42 42 41 40 38 35 32 29 28 27 26 26 29 29 26 25 25 24 25 29 32 32 33 34 34 33 32 32 33 34 34 34 35 35 38